| time (UTC) | temp F | wind direction | speed MPH | gust MPH | rain 1hr in | rain 24hr in | rain mn in | humidity % | barometer mb |
| 20260831073032 | 54 | 180 | 2.0 | 4.0 | 0.00 | 0.00 | 0.00 | 77 | 1017.0 |
| 20260831071532 | 55 | 180 | 2.0 | 3.0 | 0.00 | 0.00 | 0.00 | 75 | 1017.0 |
| 20260831070031 | 57 | 173 | 2.0 | 5.0 | 0.00 | 0.00 | 0.00 | 73 | 1017.0 |
| 20260831064537 | 57 | 151 | 3.0 | 6.0 | 0.00 | 0.00 | 0.00 | 73 | 1017.0 |
| 20260831063151 | 56 | 166 | 2.0 | 5.0 | 0.00 | 0.00 | 0.00 | 74 | 1017.1 |
| 20260831061532 | 56 | 238 | 0.0 | 3.0 | 0.00 | 0.00 | 0.00 | 75 | 1017.2 |
| 20260831054536 | 57 | 173 | 0.0 | 4.0 | 0.00 | 0.00 | 0.00 | 74 | 1017.2 |
| 20260831051534 | 59 | 180 | 1.0 | 3.0 | 0.00 | 0.00 | 0.00 | 70 | 1017.3 |
| 20260831050151 | 60 | 172 | 2.0 | 5.0 | 0.00 | 0.00 | 0.00 | 69 | 1017.3 |
| 20260831044642 | 61 | 138 | 0.0 | 2.0 | 0.00 | 0.00 | 0.00 | 66 | 1017.3 |
| 20260831043034 | 63 | 158 | 1.0 | 3.0 | 0.00 | 0.00 | 0.00 | 61 | 1017.2 |
| 20260831040036 | 65 | 299 | 3.0 | 10.0 | 0.00 | 0.00 | 0.00 | 58 | 1017.2 |
| 20260831034534 | 65 | 299 | 0.0 | 4.0 | 0.00 | 0.00 | 0.00 | 57 | 1017.2 |
| 20260831033110 | 66 | 208 | 0.0 | 4.0 | 0.00 | 0.00 | 0.00 | 54 | 1016.9 |
| 20260831031537 | 67 | 224 | 1.0 | 5.0 | 0.00 | 0.00 | 0.00 | 52 | 1016.8 |
| 20260831030034 | 68 | 235 | 3.0 | 10.0 | 0.00 | 0.00 | 0.00 | 51 | 1016.8 |
| 20260831024610 | 69 | 229 | 3.0 | 10.0 | 0.00 | 0.00 | 0.00 | 48 | 1016.8 |
| 20260831023110 | 70 | 275 | 4.0 | 9.0 | 0.00 | 0.00 | 0.00 | 47 | 1016.7 |
| 20260831021536 | 71 | 279 | 5.0 | 14.0 | 0.00 | 0.00 | 0.00 | 44 | 1016.6 |
| 20260831020038 | 72 | 280 | 6.0 | 14.0 | 0.00 | 0.00 | 0.00 | 42 | 1016.6 |
| 20260831014535 | 73 | 283 | 6.0 | 14.0 | 0.00 | 0.00 | 0.00 | 41 | 1016.6 |
| 20260831013034 | 73 | 279 | 8.0 | 16.0 | 0.00 | 0.00 | 0.00 | 40 | 1016.7 |
| 20260831011529 | 74 | 285 | 7.0 | 15.0 | 0.00 | 0.00 | 0.00 | 39 | 1016.7 |
| 20260831010031 | 75 | 287 | 7.0 | 15.0 | 0.00 | 0.00 | 0.00 | 38 | 1016.8 |
| 20260831004535 | 75 | 278 | 7.0 | 16.0 | 0.00 | 0.00 | 0.00 | 37 | 1016.9 |
| 20260831003029 | 75 | 279 | 8.0 | 17.0 | 0.00 | 0.00 | 0.00 | 37 | 1016.9 |
| 20260831001612 | 75 | 282 | 9.0 | 18.0 | 0.00 | 0.00 | 0.00 | 37 | 1016.9 |
| 20260831000149 | 75 | 284 | 10.0 | 18.0 | 0.00 | 0.00 | 0.00 | 37 | 1017.0 |
| 20260830234537 | 75 | 285 | 10.0 | 21.0 | 0.00 | 0.00 | 0.00 | 37 | 1017.1 |
| 20260830233036 | 75 | 287 | 8.0 | 17.0 | 0.00 | 0.00 | 0.00 | 37 | 1017.2 |
| 20260830231538 | 75 | 288 | 8.0 | 18.0 | 0.00 | 0.00 | 0.00 | 37 | 1017.4 |
| 20260830230035 | 75 | 284 | 8.0 | 14.0 | 0.00 | 0.00 | 0.00 | 38 | 1017.6 |
| 20260830224532 | 74 | 298 | 6.0 | 14.0 | 0.00 | 0.00 | 0.00 | 38 | 1017.9 |
| 20260830223035 | 74 | 284 | 9.0 | 21.0 | 0.00 | 0.00 | 0.00 | 37 | 1018.1 |
| 20260830220037 | 73 | 292 | 9.0 | 22.0 | 0.00 | 0.00 | 0.00 | 40 | 1018.5 |
| 20260830214642 | 72 | 287 | 9.0 | 23.0 | 0.00 | 0.00 | 0.00 | 41 | 1018.7 |
| 20260830213109 | 72 | 281 | 11.0 | 26.0 | 0.00 | 0.00 | 0.00 | 42 | 1019.0 |
| 20260830211536 | 72 | 283 | 9.0 | 19.0 | 0.00 | 0.00 | 0.00 | 42 | 1019.1 |
| 20260830210035 | 71 | 285 | 10.0 | 20.0 | 0.00 | 0.00 | 0.00 | 43 | 1019.2 |
| 20260830204533 | 71 | 282 | 12.0 | 18.0 | 0.00 | 0.00 | 0.00 | 44 | 1019.3 |
| 20260830203036 | 70 | 285 | 9.0 | 19.0 | 0.00 | 0.00 | 0.00 | 45 | 1019.6 |
| 20260830201536 | 69 | 289 | 11.0 | 22.0 | 0.00 | 0.00 | 0.00 | 46 | 1019.8 |
| 20260830200151 | 69 | 286 | 11.0 | 22.0 | 0.00 | 0.00 | 0.00 | 46 | 1020.0 |
| 20260830194535 | 69 | 286 | 9.0 | 18.0 | 0.00 | 0.00 | 0.00 | 46 | 1020.2 |
| 20260830191529 | 67 | 282 | 8.0 | 16.0 | 0.00 | 0.00 | 0.00 | 49 | 1020.6 |
| 20260830181534 | 64 | 288 | 10.0 | 20.0 | 0.00 | 0.00 | 0.00 | 55 | 1021.1 |
| 20260830180030 | 64 | 291 | 11.0 | 20.0 | 0.00 | 0.00 | 0.00 | 56 | 1021.1 |
| 20260830174535 | 63 | 281 | 9.0 | 20.0 | 0.00 | 0.00 | 0.00 | 57 | 1021.2 |
| 20260830173035 | 62 | 284 | 9.0 | 19.0 | 0.00 | 0.00 | 0.00 | 58 | 1021.3 |
| 20260830171534 | 62 | 284 | 10.0 | 18.0 | 0.00 | 0.00 | 0.00 | 59 | 1021.4 |
| 20260830170033 | 62 | 295 | 7.0 | 17.0 | 0.00 | 0.00 | 0.00 | 62 | 1021.5 |
| 20260830164535 | 61 | 282 | 8.0 | 17.0 | 0.00 | 0.00 | 0.00 | 65 | 1021.5 |
| 20260830163033 | 60 | 284 | 8.0 | 17.0 | 0.00 | 0.00 | 0.00 | 68 | 1021.7 |
| 20260830161530 | 59 | 292 | 6.0 | 15.0 | 0.00 | 0.00 | 0.00 | 70 | 1021.8 |
| 20260830160036 | 59 | 286 | 7.0 | 11.0 | 0.00 | 0.00 | 0.00 | 72 | 1022.1 |
| 20260830154534 | 58 | 271 | 5.0 | 12.0 | 0.00 | 0.00 | 0.00 | 75 | 1022.2 |
| 20260830153034 | 56 | 251 | 2.0 | 9.0 | 0.00 | 0.00 | 0.00 | 78 | 1022.3 |
| 20260830151535 | 54 | 240 | 3.0 | 10.0 | 0.00 | 0.00 | 0.00 | 80 | 1022.2 |
| 20260830150149 | 53 | 227 | 3.0 | 11.0 | 0.00 | 0.00 | 0.00 | 82 | 1022.2 |
| 20260830144534 | 51 | 174 | 2.0 | 8.0 | 0.00 | 0.00 | 0.00 | 83 | 1022.3 |
| 20260830143036 | 50 | 164 | 1.0 | 5.0 | 0.00 | 0.00 | 0.00 | 83 | 1022.2 |
| 20260830141535 | 51 | 200 | 2.0 | 10.0 | 0.00 | 0.00 | 0.00 | 83 | 1022.0 |
| 20260830134534 | 52 | 241 | 2.0 | 11.0 | 0.00 | 0.00 | 0.00 | 86 | 1021.6 |
| 20260830133033 | 51 | 247 | 3.0 | 10.0 | 0.00 | 0.00 | 0.00 | 85 | 1021.5 |
| 20260830131535 | 52 | 193 | 3.0 | 6.0 | 0.00 | 0.00 | 0.00 | 84 | 1021.4 |
| 20260830124533 | 50 | 223 | 4.0 | 8.0 | 0.00 | 0.00 | 0.00 | 86 | 1021.2 |
| 20260830123149 | 50 | 228 | 2.0 | 8.0 | 0.00 | 0.00 | 0.00 | 89 | 1021.2 |
| 20260830121533 | 48 | 195 | 2.0 | 8.0 | 0.00 | 0.00 | 0.00 | 87 | 1021.2 |
| 20260830120034 | 48 | 193 | 1.0 | 4.0 | 0.00 | 0.00 | 0.00 | 86 | 1021.2 |
| 20260830114530 | 49 | 183 | 2.0 | 5.0 | 0.00 | 0.00 | 0.00 | 86 | 1021.1 |
| 20260830113031 | 48 | 210 | 2.0 | 6.0 | 0.00 | 0.00 | 0.00 | 88 | 1021.1 |
| 20260830111533 | 48 | 183 | 1.0 | 6.0 | 0.00 | 0.00 | 0.00 | 86 | 1021.1 |
| 20260830110037 | 48 | 180 | 1.0 | 6.0 | 0.00 | 0.00 | 0.00 | 86 | 1021.1 |
| 20260830104536 | 48 | 201 | 2.0 | 5.0 | 0.00 | 0.00 | 0.00 | 85 | 1021.1 |
| 20260830103033 | 48 | 215 | 1.0 | 4.0 | 0.00 | 0.00 | 0.00 | 84 | 1021.1 |
| 20260830101534 | 48 | 226 | 0.0 | 3.0 | 0.00 | 0.00 | 0.00 | 83 | 1021.1 |
| 20260830100030 | 49 | 187 | 2.0 | 4.0 | 0.00 | 0.00 | 0.00 | 83 | 1021.1 |
| 20260830094533 | 49 | 186 | 1.0 | 3.0 | 0.00 | 0.00 | 0.00 | 82 | 1021.1 |
| 20260830093035 | 49 | 246 | 0.0 | 3.0 | 0.00 | 0.00 | 0.00 | 82 | 1021.1 |
| 20260830091610 | 49 | 179 | 2.0 | 3.0 | 0.00 | 0.00 | 0.00 | 80 | 1021.0 |
| 20260830090146 | 50 | 166 | 1.0 | 3.0 | 0.00 | 0.00 | 0.00 | 77 | 1021.0 |
| 20260830083035 | 56 | 180 | 3.0 | 6.0 | 0.00 | 0.00 | 0.00 | 71 | 1021.3 |
| 20260830080035 | 57 | 245 | 4.0 | 10.0 | 0.00 | 0.00 | 0.00 | 70 | 1021.3 |